Time,TemperatureF,DewpointF,PressureIn,WindDirection,WindDirectionDegrees,WindSpeedMPH,WindSpeedGustMPH,Humidity,HourlyPrecipIn,Conditions,Clouds,dailyrainin,SolarRadiationWatts/m^2,SoftwareType,DateUTC
2013-04-17 00:01:00,40.1,33.8,30.24,NE,53,4.0,4.0,78,0.00,,SKC,0.00,0.00,VWS V14.01,2013-04-17 05:01:00,
2013-04-17 00:06:00,40.0,33.7,30.24,NE,53,0.0,5.0,78,0.00,,SKC,0.00,0.00,VWS V14.01,2013-04-17 05:06:00,
2013-04-17 00:11:00,40.0,33.7,30.24,NE,53,3.0,4.0,78,0.00,,SKC,0.00,0.00,VWS V14.01,2013-04-17 05:11:00,
2013-04-17 00:16:00,40.1,33.8,30.24,NE,53,2.0,5.0,78,0.00,,SKC,0.00,0.00,VWS V14.01,2013-04-17 05:16:00,
2013-04-17 00:21:00,40.1,33.8,30.24,NE,53,3.0,4.0,78,0.00,,SKC,0.00,0.00,VWS V14.01,2013-04-17 05:21:00,
2013-04-17 00:26:00,40.0,34.0,30.24,NE,53,2.0,5.0,79,0.00,,SKC,0.00,0.00,VWS V14.01,2013-04-17 05:26:00,
2013-04-17 00:31:00,39.9,33.6,30.24,NE,53,4.0,4.0,78,0.00,,SKC,0.00,0.00,VWS V14.01,2013-04-17 05:31:00,
2013-04-17 00:36:00,39.8,33.8,30.24,NE,47,6.0,7.0,79,0.00,,SKC,0.00,0.00,VWS V14.01,2013-04-17 05:36:00,
2013-04-17 00:41:00,39.8,33.8,30.24,NE,47,2.0,5.0,79,0.00,,SKC,0.00,0.00,VWS V14.01,2013-04-17 05:41:00,
2013-04-17 00:46:00,39.7,33.7,30.24,NE,47,5.0,5.0,79,0.00,,SKC,0.00,0.00,VWS V14.01,2013-04-17 05:46:00,
2013-04-17 00:51:00,39.7,34.0,30.24,NE,47,4.0,4.0,80,0.00,,SKC,0.00,0.00,VWS V14.01,2013-04-17 05:51:00,
2013-04-17 00:56:00,39.7,34.0,30.24,NE,47,3.0,5.0,80,0.00,,SKC,0.00,0.00,VWS V14.01,2013-04-17 05:56:00,
2013-04-17 01:01:00,39.7,34.0,30.25,NE,47,3.0,3.0,80,0.00,,SKC,0.00,0.00,VWS V14.01,2013-04-17 06:01:00,
2013-04-17 01:07:00,39.7,34.4,30.25,NE,47,0.0,5.0,81,0.00,,SKC,0.00,0.00,VWS V14.01,2013-04-17 06:07:00,
2013-04-17 01:12:00,39.7,34.0,30.25,NE,47,3.0,4.0,80,0.00,,SKC,0.00,0.00,VWS V14.01,2013-04-17 06:12:00,
2013-04-17 01:17:00,39.8,34.5,30.25,NE,47,3.0,5.0,81,0.00,,SKC,0.00,0.00,VWS V14.01,2013-04-17 06:17:00,
2013-04-17 01:22:00,39.9,34.5,30.25,NE,47,5.0,6.0,81,0.00,,SKC,0.00,0.00,VWS V14.01,2013-04-17 06:22:00,
2013-04-17 01:27:00,40.1,34.8,30.25,NE,47,6.0,6.0,81,0.00,,SKC,0.00,0.00,VWS V14.01,2013-04-17 06:27:00,
2013-04-17 01:32:00,40.1,34.8,30.26,NE,46,0.0,4.0,81,0.00,,SKC,0.00,0.00,VWS V14.01,2013-04-17 06:32:00,
2013-04-17 01:37:00,40.2,34.8,30.26,NE,46,2.0,5.0,81,0.00,,SKC,0.00,0.00,VWS V14.01,2013-04-17 06:37:00,
2013-04-17 01:42:00,40.2,34.5,30.26,NE,46,4.0,5.0,80,0.00,,SKC,0.00,0.00,VWS V14.01,2013-04-17 06:42:00,
2013-04-17 01:47:00,40.2,34.5,30.25,NE,46,6.0,6.0,80,0.00,,SKC,0.00,0.00,VWS V14.01,2013-04-17 06:47:00,
2013-04-17 01:52:00,40.2,34.5,30.25,NE,44,6.0,6.0,80,0.00,,SKC,0.00,0.00,VWS V14.01,2013-04-17 06:52:00,
2013-04-17 01:57:00,40.3,34.6,30.25,NE,44,4.0,6.0,80,0.00,,SKC,0.00,0.00,VWS V14.01,2013-04-17 06:57:00,
2013-04-17 02:02:00,40.4,34.7,30.25,NE,44,6.0,7.0,80,0.00,,SKC,0.00,0.00,VWS V14.01,2013-04-17 07:02:00,
2013-04-17 02:07:00,40.5,34.5,30.24,NE,38,6.0,8.0,79,0.00,,SKC,0.00,0.00,VWS V14.01,2013-04-17 07:07:00,
2013-04-17 02:12:00,40.6,34.6,30.25,NE,38,4.0,5.0,79,0.00,,SKC,0.00,0.00,VWS V14.01,2013-04-17 07:12:00,
2013-04-17 02:17:00,40.6,34.6,30.25,NE,38,0.0,5.0,79,0.00,,SKC,0.00,0.00,VWS V14.01,2013-04-17 07:17:00,
2013-04-17 02:22:00,40.8,35.1,30.26,NE,38,1.0,2.0,80,0.00,,SKC,0.00,0.00,VWS V14.01,2013-04-17 07:22:00,
2013-04-17 02:27:00,40.9,34.9,30.26,NE,38,4.0,5.0,79,0.00,,SKC,0.00,0.00,VWS V14.01,2013-04-17 07:27:00,
2013-04-17 02:32:00,41.0,35.0,30.25,NE,38,4.0,7.0,79,0.00,,SKC,0.00,0.00,VWS V14.01,2013-04-17 07:32:00,
2013-04-17 02:37:00,41.0,35.0,30.25,NE,37,5.0,7.0,79,0.00,,SKC,0.00,0.00,VWS V14.01,2013-04-17 07:37:00,
2013-04-17 02:42:00,41.0,35.0,30.25,NE,34,7.0,9.0,79,0.00,,SKC,0.00,0.00,VWS V14.01,2013-04-17 07:42:00,
2013-04-17 02:47:00,41.0,35.0,30.24,NNE,32,9.0,11.0,79,0.00,,SKC,0.00,0.00,VWS V14.01,2013-04-17 07:47:00,
2013-04-17 02:52:00,41.0,34.7,30.24,NE,37,10.0,12.0,78,0.00,,SKC,0.00,0.00,VWS V14.01,2013-04-17 07:52:00,
2013-04-17 02:57:00,41.1,34.8,30.24,NNE,32,7.0,12.0,78,0.00,,SKC,0.00,0.00,VWS V14.01,2013-04-17 07:57:00,
2013-04-17 03:02:00,41.2,34.9,30.25,NE,38,7.0,9.0,78,0.00,,SKC,0.00,0.00,VWS V14.01,2013-04-17 08:02:00,
2013-04-17 03:07:00,41.3,35.0,30.25,NE,37,6.0,9.0,78,0.00,,SKC,0.00,0.00,VWS V14.01,2013-04-17 08:07:00,
2013-04-17 03:12:00,41.3,35.0,30.25,NE,34,4.0,6.0,78,0.00,,SKC,0.00,0.00,VWS V14.01,2013-04-17 08:12:00,
2013-04-17 03:17:00,41.3,34.7,30.25,NE,34,5.0,7.0,77,0.00,,SKC,0.00,0.00,VWS V14.01,2013-04-17 08:17:00,
2013-04-17 03:22:00,41.4,34.7,30.25,NE,37,7.0,8.0,77,0.00,,SKC,0.00,0.00,VWS V14.01,2013-04-17 08:22:00,
2013-04-17 03:27:00,41.4,34.4,30.25,NE,39,6.0,10.0,76,0.00,,SKC,0.00,0.00,VWS V14.01,2013-04-17 08:27:00,
2013-04-17 03:32:00,41.4,34.7,30.24,NE,41,4.0,7.0,77,0.00,,SKC,0.00,0.00,VWS V14.01,2013-04-17 08:32:00,
2013-04-17 03:37:00,41.3,34.7,30.24,NE,44,7.0,10.0,77,0.00,,SKC,0.00,0.00,VWS V14.01,2013-04-17 08:37:00,
2013-04-17 03:42:00,41.3,34.7,30.23,NE,55,5.0,10.0,77,0.00,,SKC,0.00,0.00,VWS V14.01,2013-04-17 08:42:00,
2013-04-17 03:47:00,41.3,34.7,30.23,NE,53,4.0,10.0,77,0.00,,SKC,0.00,0.00,VWS V14.01,2013-04-17 08:47:00,
2013-04-17 03:52:00,41.2,34.5,30.23,NE,54,4.0,5.0,77,0.00,,SKC,0.00,0.00,VWS V14.01,2013-04-17 08:52:00,
2013-04-17 03:57:00,41.1,34.1,30.23,NE,45,5.0,8.0,76,0.00,,SKC,0.00,0.00,VWS V14.01,2013-04-17 08:57:00,
2013-04-17 04:02:00,41.1,33.8,30.23,NE,46,6.0,7.0,75,0.00,,SKC,0.00,0.00,VWS V14.01,2013-04-17 09:02:00,
2013-04-17 04:07:00,41.1,33.5,30.23,NE,50,3.0,7.0,74,0.00,,SKC,0.00,0.00,VWS V14.01,2013-04-17 09:07:00,
2013-04-17 04:12:00,41.2,33.2,30.23,ENE,69,3.0,5.0,73,0.00,,SKC,0.00,0.00,VWS V14.01,2013-04-17 09:12:00,
2013-04-17 04:17:00,41.3,33.0,30.23,ENE,65,5.0,7.0,72,0.00,,SKC,0.00,0.00,VWS V14.01,2013-04-17 09:17:00,
2013-04-17 04:22:00,41.2,32.5,30.22,East,81,5.0,10.0,71,0.00,,SKC,0.00,0.00,VWS V14.01,2013-04-17 09:22:00,
2013-04-17 04:27:00,41.4,32.4,30.22,East,84,4.0,12.0,70,0.00,,SKC,0.00,0.00,VWS V14.01,2013-04-17 09:27:00,
2013-04-17 04:32:00,41.4,32.0,30.23,ENE,67,6.0,7.0,69,0.00,,SKC,0.00,0.00,VWS V14.01,2013-04-17 09:32:00,
2013-04-17 04:37:00,41.5,31.7,30.22,NE,56,8.0,12.0,68,0.00,,SKC,0.00,0.00,VWS V14.01,2013-04-17 09:37:00,
2013-04-17 04:42:00,41.6,31.5,30.22,NE,42,13.0,15.0,67,0.00,,SKC,0.00,0.00,VWS V14.01,2013-04-17 09:42:00,
2013-04-17 04:47:00,41.6,31.5,30.22,ENE,63,7.0,19.0,67,0.00,,SKC,0.00,0.00,VWS V14.01,2013-04-17 09:47:00,
2013-04-17 04:52:00,41.4,31.6,30.22,NE,51,7.0,11.0,68,0.00,,SKC,0.00,0.00,VWS V14.01,2013-04-17 09:52:00,
2013-04-17 04:57:00,41.2,31.5,30.22,ENE,76,13.0,17.0,68,0.00,,SKC,0.00,0.00,VWS V14.01,2013-04-17 09:57:00,
2013-04-17 05:02:00,41.1,31.4,30.21,NE,55,11.0,14.0,68,0.00,,SKC,0.00,0.00,VWS V14.01,2013-04-17 10:02:00,
2013-04-17 05:07:00,40.8,31.8,30.21,ENE,57,11.0,16.0,70,0.00,,SKC,0.00,0.00,VWS V14.01,2013-04-17 10:07:00,
2013-04-17 05:12:00,40.6,32.3,30.20,NNE,28,11.0,17.0,72,0.00,,SKC,0.00,0.00,VWS V14.01,2013-04-17 10:12:00,
2013-04-17 05:17:00,40.4,32.4,30.21,NE,53,12.0,17.0,73,0.00,,SKC,0.00,0.00,VWS V14.01,2013-04-17 10:17:00,
2013-04-17 05:22:00,40.2,32.2,30.21,NE,46,12.0,14.0,73,0.00,,SKC,0.00,0.00,VWS V14.01,2013-04-17 10:22:00,
2013-04-17 05:27:00,39.9,32.3,30.21,NE,54,8.0,15.0,74,0.00,,SKC,0.00,0.00,VWS V14.01,2013-04-17 10:27:00,
2013-04-17 05:33:00,39.8,32.2,30.21,NE,49,8.0,13.0,74,0.00,,SKC,0.00,0.00,VWS V14.01,2013-04-17 10:33:00,
2013-04-17 05:38:00,39.6,32.3,30.21,NE,52,4.0,13.0,75,0.00,,SKC,0.00,0.00,VWS V14.01,2013-04-17 10:38:00,
2013-04-17 05:43:00,39.5,32.2,30.21,ENE,66,8.0,12.0,75,0.00,,SKC,0.00,0.00,VWS V14.01,2013-04-17 10:43:00,
2013-04-17 05:48:00,39.5,32.2,30.21,ENE,63,11.0,12.0,75,0.00,,SKC,0.00,0.00,VWS V14.01,2013-04-17 10:48:00,
2013-04-17 05:53:00,39.3,32.0,30.20,ENE,61,8.0,11.0,75,0.00,,SKC,0.00,0.00,VWS V14.01,2013-04-17 10:53:00,
2013-04-17 05:58:00,39.2,32.0,30.20,ENE,63,4.0,11.0,75,0.00,,SKC,0.00,0.00,VWS V14.01,2013-04-17 10:58:00,
2013-04-17 06:03:00,39.2,32.0,30.22,ENE,70,6.0,12.0,75,0.00,,SKC,0.00,0.00,VWS V14.01,2013-04-17 11:03:00,
2013-04-17 06:08:00,39.3,32.4,30.22,ENE,65,6.0,12.0,76,0.00,,SKC,0.00,0.00,VWS V14.01,2013-04-17 11:08:00,
2013-04-17 06:13:00,39.3,32.0,30.21,NE,45,7.0,12.0,75,0.00,,SKC,0.00,7.00,VWS V14.01,2013-04-17 11:13:00,
2013-04-17 06:18:00,39.3,32.4,30.20,NE,42,7.0,13.0,76,0.00,,SKC,0.00,11.00,VWS V14.01,2013-04-17 11:18:00,
2013-04-17 06:23:00,39.3,32.4,30.19,NE,53,12.0,15.0,76,0.00,,SKC,0.00,12.00,VWS V14.01,2013-04-17 11:23:00,
2013-04-17 06:28:00,39.4,32.5,30.19,NE,49,7.0,17.0,76,0.00,,SKC,0.00,21.00,VWS V14.01,2013-04-17 11:28:00,
2013-04-17 06:33:00,39.5,32.6,30.21,ENE,59,5.0,14.0,76,0.00,,SKC,0.00,37.00,VWS V14.01,2013-04-17 11:33:00,
2013-04-17 06:38:00,39.7,32.8,30.22,ENE,63,7.0,14.0,76,0.00,,SKC,0.00,37.00,VWS V14.01,2013-04-17 11:38:00,
2013-04-17 06:43:00,39.9,32.6,30.21,East,88,12.0,17.0,75,0.00,,SKC,0.00,39.00,VWS V14.01,2013-04-17 11:43:00,
2013-04-17 06:48:00,40.0,32.7,30.22,East,98,9.0,17.0,75,0.00,,SKC,0.00,49.00,VWS V14.01,2013-04-17 11:48:00,
2013-04-17 06:53:00,40.1,32.8,30.22,NE,54,12.0,12.0,75,0.00,,SKC,0.00,53.00,VWS V14.01,2013-04-17 11:53:00,
2013-04-17 06:58:00,40.2,32.9,30.22,ENE,59,4.0,13.0,75,0.00,,SKC,0.00,60.00,VWS V14.01,2013-04-17 11:58:00,
2013-04-17 07:03:00,40.4,32.8,30.22,East,83,5.0,15.0,74,0.00,,SKC,0.00,63.00,VWS V14.01,2013-04-17 12:03:00,
2013-04-17 07:08:00,40.5,32.9,30.23,ENE,63,10.0,15.0,74,0.00,,SKC,0.00,62.00,VWS V14.01,2013-04-17 12:08:00,
2013-04-17 07:13:00,40.5,32.9,30.23,NE,50,12.0,17.0,74,0.00,,SKC,0.00,65.00,VWS V14.01,2013-04-17 12:13:00,
2013-04-17 07:18:00,40.6,33.3,30.23,NE,51,8.0,17.0,75,0.00,,SKC,0.00,69.00,VWS V14.01,2013-04-17 12:18:00,
2013-04-17 07:23:00,40.6,33.0,30.23,ENE,70,5.0,14.0,74,0.00,,SKC,0.00,65.00,VWS V14.01,2013-04-17 12:23:00,
2013-04-17 07:28:00,40.6,33.0,30.23,East,89,4.0,14.0,74,0.00,,SKC,0.00,54.00,VWS V14.01,2013-04-17 12:28:00,
2013-04-17 07:33:00,40.7,33.1,30.25,East,85,7.0,11.0,74,0.00,,SKC,0.00,60.00,VWS V14.01,2013-04-17 12:33:00,
2013-04-17 07:38:00,40.8,33.2,30.26,East,92,5.0,11.0,74,0.00,,SKC,0.00,67.00,VWS V14.01,2013-04-17 12:38:00,
2013-04-17 07:43:00,40.9,33.3,30.26,East,87,4.0,11.0,74,0.00,,SKC,0.00,79.00,VWS V14.01,2013-04-17 12:43:00,
2013-04-17 07:48:00,41.0,34.7,30.26,NE,55,6.0,11.0,78,0.00,,SKC,0.00,58.00,VWS V14.01,2013-04-17 12:48:00,
2013-04-17 07:53:00,41.0,33.4,30.26,East,80,4.0,11.0,74,0.00,,SKC,0.00,40.00,VWS V14.01,2013-04-17 12:53:00,
2013-04-17 07:58:00,41.1,33.5,30.26,East,86,7.0,11.0,74,0.00,,SKC,0.00,39.00,VWS V14.01,2013-04-17 12:58:00,
2013-04-17 08:03:00,41.2,33.5,30.26,ENE,76,6.0,10.0,74,0.00,,SKC,0.00,37.00,VWS V14.01,2013-04-17 13:03:00,
2013-04-17 08:08:00,41.2,33.5,30.26,ENE,63,10.0,12.0,74,0.00,,SKC,0.00,49.00,VWS V14.01,2013-04-17 13:08:00,
2013-04-17 08:13:00,41.2,33.2,30.24,ENE,61,11.0,13.0,73,0.00,,SKC,0.00,77.00,VWS V14.01,2013-04-17 13:13:00,
2013-04-17 08:18:00,41.4,33.4,30.24,NE,48,8.0,18.0,73,0.00,,SKC,0.00,84.00,VWS V14.01,2013-04-17 13:18:00,
2013-04-17 08:23:00,41.5,33.5,30.24,NNE,25,12.0,13.0,73,0.00,,SKC,0.00,105.00,VWS V14.01,2013-04-17 13:23:00,
2013-04-17 08:28:00,41.8,33.8,30.23,ENE,62,12.0,18.0,73,0.00,,SKC,0.00,123.00,VWS V14.01,2013-04-17 13:28:00,
2013-04-17 08:33:00,42.0,33.6,30.22,ENE,64,7.0,12.0,72,0.00,,SKC,0.00,146.00,VWS V14.01,2013-04-17 13:33:00,
2013-04-17 08:38:00,42.2,33.8,30.22,ENE,76,13.0,14.0,72,0.00,,SKC,0.00,169.00,VWS V14.01,2013-04-17 13:38:00,
2013-04-17 08:43:00,42.4,33.7,30.21,ENE,57,12.0,15.0,71,0.00,,SKC,0.00,153.00,VWS V14.01,2013-04-17 13:43:00,
2013-04-17 08:48:00,42.4,33.7,30.20,ENE,59,14.0,18.0,71,0.00,,SKC,0.00,134.00,VWS V14.01,2013-04-17 13:48:00,
2013-04-17 08:53:00,42.4,33.7,30.19,NE,51,14.0,19.0,71,0.00,,SKC,0.00,134.00,VWS V14.01,2013-04-17 13:53:00,
2013-04-17 08:58:00,42.4,33.7,30.18,NE,44,16.0,19.0,71,0.00,,SKC,0.00,123.00,VWS V14.01,2013-04-17 13:58:00,
2013-04-17 09:03:00,42.4,33.7,30.18,ENE,61,10.0,20.0,71,0.00,,SKC,0.00,62.00,VWS V14.01,2013-04-17 14:03:00,
2013-04-17 09:08:00,42.4,33.7,30.21,ENE,74,7.0,20.0,71,0.00,,SKC,0.00,35.00,VWS V14.01,2013-04-17 14:08:00,
2013-04-17 09:13:00,42.5,33.8,30.22,East,98,4.0,12.0,71,0.00,,SKC,0.00,70.00,VWS V14.01,2013-04-17 14:13:00,
2013-04-17 09:18:00,42.5,34.1,30.20,ENE,72,11.0,17.0,72,0.00,,SKC,0.00,111.00,VWS V14.01,2013-04-17 14:18:00,
2013-04-17 09:23:00,42.3,34.3,30.16,ENE,77,18.0,20.0,73,0.00,,SKC,0.00,90.00,VWS V14.01,2013-04-17 14:23:00,
2013-04-17 09:28:00,42.0,34.0,30.10,NE,51,26.0,35.0,73,0.00,,SKC,0.00,51.00,VWS V14.01,2013-04-17 14:28:00,
2013-04-17 09:33:00,41.8,34.1,30.13,East,95,20.0,35.0,74,0.00,,SKC,0.00,67.00,VWS V14.01,2013-04-17 14:33:00,
2013-04-17 09:38:00,42.0,34.7,30.15,East,87,4.0,35.0,75,0.00,,SKC,0.00,84.00,VWS V14.01,2013-04-17 14:38:00,
2013-04-17 09:44:00,41.8,34.5,30.17,East,94,11.0,21.0,75,0.00,,SKC,0.00,95.00,VWS V14.01,2013-04-17 14:44:00,
2013-04-17 09:48:00,41.8,34.5,30.16,East,93,14.0,21.0,75,0.00,,SKC,0.00,74.00,VWS V14.01,2013-04-17 14:48:00,
2013-04-17 09:54:00,41.7,34.4,30.16,NE,53,14.0,17.0,75,0.00,,SKC,0.00,67.00,VWS V14.01,2013-04-17 14:54:00,
2013-04-17 09:59:00,41.6,34.3,30.16,ENE,69,11.0,18.0,75,0.00,,SKC,0.00,84.00,VWS V14.01,2013-04-17 14:59:00,
2013-04-17 10:04:00,41.6,34.6,30.16,ENE,65,20.0,22.0,76,0.00,,SKC,0.00,93.00,VWS V14.01,2013-04-17 15:04:00,
2013-04-17 10:09:00,41.6,34.9,30.18,NE,46,5.0,22.0,77,0.00,,SKC,0.00,67.00,VWS V14.01,2013-04-17 15:09:00,
2013-04-17 10:14:00,41.5,35.2,30.19,NE,54,5.0,8.0,78,0.00,,SKC,0.00,62.00,VWS V14.01,2013-04-17 15:14:00,
2013-04-17 10:19:00,41.3,35.0,30.20,ENE,78,4.0,10.0,78,0.00,,SKC,0.00,54.00,VWS V14.01,2013-04-17 15:19:00,
2013-04-17 10:24:00,41.2,35.2,30.20,NE,41,9.0,14.0,79,0.01,,SKC,0.01,49.00,VWS V14.01,2013-04-17 15:24:00,
2013-04-17 10:29:00,41.0,35.3,30.21,East,80,7.0,14.0,80,0.01,,SKC,0.01,32.00,VWS V14.01,2013-04-17 15:29:00,
2013-04-17 10:34:00,40.8,35.4,30.19,ENE,72,10.0,11.0,81,0.01,,SKC,0.01,25.00,VWS V14.01,2013-04-17 15:34:00,
2013-04-17 10:39:00,40.5,35.5,30.18,East,99,13.0,15.0,82,0.01,,SKC,0.01,23.00,VWS V14.01,2013-04-17 15:39:00,
2013-04-17 10:44:00,40.2,35.5,30.15,East,82,14.0,17.0,83,0.01,,SKC,0.01,30.00,VWS V14.01,2013-04-17 15:44:00,
2013-04-17 10:49:00,39.9,35.5,30.12,ENE,75,8.0,23.0,84,0.02,,SKC,0.02,86.00,VWS V14.01,2013-04-17 15:49:00,
2013-04-17 10:54:00,39.8,35.7,30.17,East,80,4.0,13.0,85,0.03,,SKC,0.03,172.00,VWS V14.01,2013-04-17 15:54:00,
2013-04-17 10:59:00,40.0,36.5,30.14,NE,44,12.0,17.0,87,0.04,,SKC,0.04,299.00,VWS V14.01,2013-04-17 15:59:00,
2013-04-17 11:04:00,40.0,36.5,30.14,NE,54,13.0,20.0,87,0.04,,SKC,0.04,121.00,VWS V14.01,2013-04-17 16:04:00,
2013-04-17 11:09:00,39.9,36.3,30.16,ESE,102,13.0,20.0,87,0.04,,SKC,0.04,58.00,VWS V14.01,2013-04-17 16:09:00,
2013-04-17 11:14:00,39.8,36.0,30.17,ENE,67,2.0,18.0,86,0.04,,SKC,0.04,49.00,VWS V14.01,2013-04-17 16:14:00,
2013-04-17 11:19:00,39.9,36.1,30.17,East,94,11.0,18.0,86,0.04,,SKC,0.04,60.00,VWS V14.01,2013-04-17 16:19:00,
2013-04-17 11:24:00,39.9,36.1,30.16,East,99,13.0,13.0,86,0.04,,SKC,0.04,77.00,VWS V14.01,2013-04-17 16:24:00,
2013-04-17 11:29:00,39.8,36.2,30.12,ENE,68,8.0,17.0,87,0.05,,SKC,0.05,95.00,VWS V14.01,2013-04-17 16:29:00,
2013-04-17 11:34:00,39.5,36.2,30.10,ENE,61,11.0,15.0,88,0.04,,SKC,0.05,123.00,VWS V14.01,2013-04-17 16:34:00,
2013-04-17 11:39:00,39.5,36.2,30.08,ENE,62,8.0,23.0,88,0.05,,SKC,0.06,167.00,VWS V14.01,2013-04-17 16:39:00,
2013-04-17 11:44:00,39.4,36.2,30.09,ENE,67,8.0,19.0,88,0.05,,SKC,0.06,132.00,VWS V14.01,2013-04-17 16:44:00,
2013-04-17 11:49:00,39.6,36.3,30.09,NNE,28,16.0,20.0,88,0.05,,SKC,0.06,118.00,VWS V14.01,2013-04-17 16:49:00,
2013-04-17 11:54:00,39.8,36.5,30.08,NNE,24,8.0,19.0,88,0.03,,SKC,0.06,153.00,VWS V14.01,2013-04-17 16:54:00,
2013-04-17 11:59:00,40.0,36.7,30.10,ENE,76,6.0,21.0,88,0.03,,SKC,0.06,176.00,VWS V14.01,2013-04-17 16:59:00,
2013-04-17 12:04:00,40.1,36.5,30.11,East,89,7.0,15.0,87,0.02,,SKC,0.06,220.00,VWS V14.01,2013-04-17 17:04:00,
2013-04-17 12:09:00,40.5,36.9,30.12,East,101,12.0,18.0,87,0.02,,SKC,0.06,221.00,VWS V14.01,2013-04-17 17:09:00,
2013-04-17 12:14:00,40.5,36.7,30.11,East,80,10.0,21.0,86,0.02,,SKC,0.06,142.00,VWS V14.01,2013-04-17 17:14:00,
2013-04-17 12:19:00,40.7,36.5,30.12,East,94,13.0,21.0,85,0.02,,SKC,0.06,90.00,VWS V14.01,2013-04-17 17:19:00,
2013-04-17 12:24:00,40.7,36.5,30.13,ESE,108,11.0,16.0,85,0.02,,SKC,0.06,86.00,VWS V14.01,2013-04-17 17:24:00,
2013-04-17 12:29:00,40.8,36.7,30.15,East,98,6.0,16.0,85,0.02,,SKC,0.06,42.00,VWS V14.01,2013-04-17 17:29:00,
2013-04-17 12:34:00,40.8,36.3,30.17,East,91,7.0,12.0,84,0.01,,SKC,0.06,26.00,VWS V14.01,2013-04-17 17:34:00,
2013-04-17 12:39:00,40.9,36.5,30.17,East,98,13.0,13.0,84,0.01,,SKC,0.06,23.00,VWS V14.01,2013-04-17 17:39:00,
2013-04-17 12:44:00,41.0,36.5,30.16,East,88,5.0,9.0,84,0.00,,SKC,0.06,19.00,VWS V14.01,2013-04-17 17:44:00,
2013-04-17 12:49:00,41.0,36.8,30.14,East,90,11.0,14.0,85,0.01,,SKC,0.07,39.00,VWS V14.01,2013-04-17 17:49:00,
2013-04-17 12:54:00,40.5,36.7,30.12,ENE,72,10.0,17.0,86,0.05,,SKC,0.11,49.00,VWS V14.01,2013-04-17 17:54:00,
2013-04-17 12:59:00,40.0,36.7,30.10,NE,53,17.0,18.0,88,0.08,,SKC,0.14,49.00,VWS V14.01,2013-04-17 17:59:00,
2013-04-17 13:04:00,39.7,36.7,30.08,NE,55,15.0,24.0,89,0.09,,SKC,0.15,74.00,VWS V14.01,2013-04-17 18:04:00,
2013-04-17 13:09:00,39.6,36.9,30.11,ENE,74,8.0,24.0,90,0.11,,SKC,0.17,18.00,VWS V14.01,2013-04-17 18:09:00,
2013-04-17 13:14:00,39.6,36.9,30.12,East,80,4.0,15.0,90,0.11,,SKC,0.17,14.00,VWS V14.01,2013-04-17 18:14:00,
2013-04-17 13:19:00,39.7,37.0,30.11,ENE,71,8.0,15.0,90,0.11,,SKC,0.17,14.00,VWS V14.01,2013-04-17 18:19:00,
2013-04-17 13:24:00,39.7,37.0,30.09,ENE,72,6.0,17.0,90,0.13,,SKC,0.19,19.00,VWS V14.01,2013-04-17 18:24:00,
2013-04-17 13:29:00,39.6,36.9,30.10,East,85,3.0,21.0,90,0.15,,SKC,0.21,21.00,VWS V14.01,2013-04-17 18:29:00,
2013-04-17 13:34:00,39.6,37.2,30.11,ENE,71,7.0,13.0,91,0.17,,SKC,0.23,16.00,VWS V14.01,2013-04-17 18:34:00,
2013-04-17 13:39:00,39.5,37.1,30.10,NE,40,11.0,14.0,91,0.18,,SKC,0.24,11.00,VWS V14.01,2013-04-17 18:39:00,
2013-04-17 13:44:00,39.4,37.0,30.09,NE,45,23.0,23.0,91,0.20,,SKC,0.26,11.00,VWS V14.01,2013-04-17 18:44:00,
2013-04-17 13:49:00,39.3,37.2,30.08,ENE,64,12.0,23.0,92,0.22,,SKC,0.28,11.00,VWS V14.01,2013-04-17 18:49:00,
2013-04-17 13:54:00,39.4,37.3,30.10,NE,38,9.0,18.0,92,0.22,,SKC,0.30,7.00,VWS V14.01,2013-04-17 18:54:00,
2013-04-17 13:59:00,39.5,37.4,30.08,NNE,21,15.0,19.0,92,0.23,,SKC,0.31,9.00,VWS V14.01,2013-04-17 18:59:00,
2013-04-17 14:04:00,39.5,37.4,30.06,NNE,22,17.0,22.0,92,0.18,,SKC,0.32,5.00,VWS V14.01,2013-04-17 19:04:00,
2013-04-17 14:10:00,39.4,37.5,30.09,NE,40,16.0,22.0,93,0.19,,SKC,0.33,0.00,VWS V14.01,2013-04-17 19:10:00,
2013-04-17 14:15:00,39.4,37.5,30.09,NNE,30,17.0,17.0,93,0.17,,SKC,0.34,5.00,VWS V14.01,2013-04-17 19:15:00,
2013-04-17 14:20:00,39.5,37.7,30.08,NE,35,13.0,20.0,93,0.19,,SKC,0.36,5.00,VWS V14.01,2013-04-17 19:20:00,
2013-04-17 14:25:00,39.4,37.5,30.10,ENE,66,6.0,18.0,93,0.20,,SKC,0.37,5.00,VWS V14.01,2013-04-17 19:25:00,
2013-04-17 14:30:00,39.5,37.7,30.12,ENE,75,3.0,18.0,93,0.22,,SKC,0.39,5.00,VWS V14.01,2013-04-17 19:30:00,
2013-04-17 14:35:00,39.6,37.8,30.13,ENE,74,2.0,4.0,93,0.19,,SKC,0.40,5.00,VWS V14.01,2013-04-17 19:35:00,
2013-04-17 14:40:00,39.6,38.0,30.09,NE,55,5.0,8.0,94,0.21,,SKC,0.42,7.00,VWS V14.01,2013-04-17 19:40:00,
2013-04-17 14:45:00,39.6,38.0,30.09,ENE,68,7.0,11.0,94,0.19,,SKC,0.43,7.00,VWS V14.01,2013-04-17 19:45:00,
2013-04-17 14:50:00,39.6,38.0,30.09,ENE,71,4.0,11.0,94,0.21,,SKC,0.45,7.00,VWS V14.01,2013-04-17 19:50:00,
2013-04-17 14:55:00,39.6,38.0,30.08,ENE,61,6.0,11.0,94,0.20,,SKC,0.48,9.00,VWS V14.01,2013-04-17 19:55:00,
2013-04-17 15:00:00,39.4,37.8,30.08,NE,52,11.0,14.0,94,0.22,,SKC,0.50,11.00,VWS V14.01,2013-04-17 20:00:00,
2013-04-17 15:05:00,39.4,37.8,30.06,NE,41,11.0,13.0,94,0.20,,SKC,0.52,14.00,VWS V14.01,2013-04-17 20:05:00,
2013-04-17 15:10:00,39.3,37.7,30.06,NNE,28,12.0,16.0,94,0.22,,SKC,0.54,18.00,VWS V14.01,2013-04-17 20:10:00,
2013-04-17 15:15:00,39.2,37.6,30.05,NNE,25,15.0,17.0,94,0.22,,SKC,0.56,25.00,VWS V14.01,2013-04-17 20:15:00,
2013-04-17 15:20:00,39.0,37.4,30.03,ENE,66,15.0,20.0,94,0.23,,SKC,0.57,47.00,VWS V14.01,2013-04-17 20:20:00,
2013-04-17 15:25:00,39.0,37.7,30.02,NE,42,14.0,18.0,95,0.22,,SKC,0.58,58.00,VWS V14.01,2013-04-17 20:25:00,
2013-04-17 15:30:00,38.9,37.6,30.02,NNE,30,9.0,18.0,95,0.23,,SKC,0.59,56.00,VWS V14.01,2013-04-17 20:30:00,
2013-04-17 15:35:00,39.1,37.8,30.05,NNE,19,8.0,17.0,95,0.20,,SKC,0.59,37.00,VWS V14.01,2013-04-17 20:35:00,
2013-04-17 15:40:00,39.2,37.9,30.06,NNE,28,8.0,17.0,95,0.21,,SKC,0.60,37.00,VWS V14.01,2013-04-17 20:40:00,
2013-04-17 15:45:00,39.2,37.9,30.03,NE,56,14.0,21.0,95,0.18,,SKC,0.60,91.00,VWS V14.01,2013-04-17 20:45:00,
2013-04-17 15:50:00,39.4,38.1,30.01,East,81,13.0,21.0,95,0.18,,SKC,0.60,132.00,VWS V14.01,2013-04-17 20:50:00,
2013-04-17 15:55:00,39.5,38.2,29.99,ENE,61,6.0,21.0,95,0.15,,SKC,0.60,127.00,VWS V14.01,2013-04-17 20:55:00,
2013-04-17 16:00:00,39.7,38.4,29.99,ENE,62,11.0,22.0,95,0.15,,SKC,0.60,127.00,VWS V14.01,2013-04-17 21:00:00,
2013-04-17 16:05:00,39.8,38.5,29.98,NE,38,14.0,22.0,95,0.10,,SKC,0.60,120.00,VWS V14.01,2013-04-17 21:05:00,
2013-04-17 16:10:00,40.1,38.8,29.99,NE,37,12.0,22.0,95,0.10,,SKC,0.60,79.00,VWS V14.01,2013-04-17 21:10:00,
2013-04-17 16:15:00,40.3,39.0,29.99,ENE,66,8.0,20.0,95,0.06,,SKC,0.60,65.00,VWS V14.01,2013-04-17 21:15:00,
2013-04-17 16:20:00,40.4,39.1,29.99,East,82,13.0,21.0,95,0.06,,SKC,0.60,62.00,VWS V14.01,2013-04-17 21:20:00,
2013-04-17 16:25:00,40.5,39.2,29.99,East,82,14.0,20.0,95,0.03,,SKC,0.60,67.00,VWS V14.01,2013-04-17 21:25:00,
2013-04-17 16:30:00,40.6,39.3,29.99,NNE,24,14.0,15.0,95,0.01,,SKC,0.60,67.00,VWS V14.01,2013-04-17 21:30:00,
2013-04-17 16:35:00,40.7,39.4,29.98,ENE,61,14.0,21.0,95,0.01,,SKC,0.60,56.00,VWS V14.01,2013-04-17 21:35:00,
2013-04-17 16:40:00,40.7,39.4,29.98,NE,52,15.0,21.0,95,0.01,,SKC,0.60,42.00,VWS V14.01,2013-04-17 21:40:00,
2013-04-17 16:45:00,40.7,39.4,30.01,ENE,71,13.0,20.0,95,0.00,,SKC,0.60,26.00,VWS V14.01,2013-04-17 21:45:00,
2013-04-17 16:50:00,40.7,39.4,30.02,NE,53,8.0,20.0,95,0.00,,SKC,0.60,25.00,VWS V14.01,2013-04-17 21:50:00,
2013-04-17 16:55:00,40.7,39.4,30.01,NE,52,8.0,19.0,95,0.00,,SKC,0.60,25.00,VWS V14.01,2013-04-17 21:55:00,
2013-04-17 17:00:00,40.7,39.4,30.01,ENE,77,10.0,14.0,95,0.00,,SKC,0.60,25.00,VWS V14.01,2013-04-17 22:00:00,
2013-04-17 17:05:00,40.7,39.4,30.02,ENE,62,10.0,14.0,95,0.00,,SKC,0.60,19.00,VWS V14.01,2013-04-17 22:05:00,
2013-04-17 17:10:00,40.8,39.5,30.02,ENE,74,15.0,15.0,95,0.00,,SKC,0.60,14.00,VWS V14.01,2013-04-17 22:10:00,
2013-04-17 17:15:00,40.8,39.5,30.02,ENE,76,7.0,15.0,95,0.00,,SKC,0.60,14.00,VWS V14.01,2013-04-17 22:15:00,
2013-04-17 17:20:00,40.8,39.5,30.03,ENE,60,6.0,10.0,95,0.00,,SKC,0.60,16.00,VWS V14.01,2013-04-17 22:20:00,
2013-04-17 17:25:00,40.9,39.6,30.01,East,88,7.0,17.0,95,0.00,,SKC,0.60,16.00,VWS V14.01,2013-04-17 22:25:00,
2013-04-17 17:30:00,40.8,39.5,30.00,ENE,76,14.0,14.0,95,0.00,,SKC,0.60,25.00,VWS V14.01,2013-04-17 22:30:00,
2013-04-17 17:35:00,40.8,39.5,30.01,NE,40,12.0,17.0,95,0.00,,SKC,0.60,9.00,VWS V14.01,2013-04-17 22:35:00,
2013-04-17 17:40:00,40.7,39.4,29.95,East,84,17.0,18.0,95,0.00,,SKC,0.60,28.00,VWS V14.01,2013-04-17 22:40:00,
2013-04-17 17:45:00,40.7,39.4,29.94,ENE,58,11.0,26.0,95,0.00,,SKC,0.60,25.00,VWS V14.01,2013-04-17 22:45:00,
2013-04-17 17:50:00,40.8,39.5,29.98,NE,54,13.0,14.0,95,0.00,,SKC,0.60,7.00,VWS V14.01,2013-04-17 22:50:00,
2013-04-17 17:55:00,40.9,39.6,29.97,ENE,61,11.0,18.0,95,0.00,,SKC,0.60,7.00,VWS V14.01,2013-04-17 22:55:00,
2013-04-17 18:00:00,41.0,39.7,29.94,ENE,75,15.0,23.0,95,0.00,,SKC,0.60,12.00,VWS V14.01,2013-04-17 23:00:00,
2013-04-17 18:06:00,40.9,39.6,29.91,East,99,21.0,30.0,95,0.00,,SKC,0.60,25.00,VWS V14.01,2013-04-17 23:06:00,
2013-04-17 18:11:00,41.0,39.7,29.98,North,350,10.0,15.0,95,0.00,,SKC,0.60,5.00,VWS V14.01,2013-04-17 23:11:00,
2013-04-17 18:16:00,41.2,39.9,30.00,NNE,22,12.0,19.0,95,0.00,,SKC,0.60,0.00,VWS V14.01,2013-04-17 23:16:00,
2013-04-17 18:21:00,41.3,40.0,29.99,NNE,26,15.0,15.0,95,0.00,,SKC,0.60,0.00,VWS V14.01,2013-04-17 23:21:00,
2013-04-17 18:26:00,41.4,40.1,29.99,NE,38,11.0,26.0,95,0.00,,SKC,0.60,0.00,VWS V14.01,2013-04-17 23:26:00,
2013-04-17 18:31:00,41.5,40.2,29.97,NE,51,14.0,22.0,95,0.00,,SKC,0.60,0.00,VWS V14.01,2013-04-17 23:31:00,
2013-04-17 18:36:00,41.5,40.2,29.95,NE,47,14.0,22.0,95,0.00,,SKC,0.60,0.00,VWS V14.01,2013-04-17 23:36:00,
2013-04-17 18:41:00,41.4,40.1,29.93,NNE,24,6.0,15.0,95,0.00,,SKC,0.60,0.00,VWS V14.01,2013-04-17 23:41:00,
2013-04-17 18:46:00,41.3,40.0,29.91,ENE,65,11.0,18.0,95,0.00,,SKC,0.60,5.00,VWS V14.01,2013-04-17 23:46:00,
2013-04-17 18:51:00,41.3,40.0,29.89,East,84,8.0,10.0,95,0.00,,SKC,0.60,0.00,VWS V14.01,2013-04-17 23:51:00,
2013-04-17 18:56:00,41.3,40.0,29.90,NNE,28,11.0,19.0,95,0.00,,SKC,0.60,0.00,VWS V14.01,2013-04-17 23:56:00,
2013-04-17 19:01:00,41.4,40.1,29.91,NE,45,22.0,23.0,95,0.00,,SKC,0.60,0.00,VWS V14.01,2013-04-18 00:01:00,
2013-04-17 19:06:00,41.4,40.1,29.91,NNE,14,20.0,28.0,95,0.00,,SKC,0.60,0.00,VWS V14.01,2013-04-18 00:06:00,
2013-04-17 19:11:00,41.5,40.2,29.90,NE,37,23.0,23.0,95,0.00,,SKC,0.60,0.00,VWS V14.01,2013-04-18 00:11:00,
2013-04-17 19:16:00,41.6,40.3,29.90,NNE,31,27.0,27.0,95,0.00,,SKC,0.60,0.00,VWS V14.01,2013-04-18 00:16:00,
2013-04-17 19:21:00,41.5,40.2,29.89,NE,56,14.0,15.0,95,0.00,,SKC,0.60,0.00,VWS V14.01,2013-04-18 00:21:00,
2013-04-17 19:26:00,41.7,40.4,29.89,ENE,67,12.0,21.0,95,0.00,,SKC,0.60,0.00,VWS V14.01,2013-04-18 00:26:00,
2013-04-17 19:31:00,41.8,40.5,29.91,NE,44,14.0,19.0,95,0.00,,SKC,0.60,0.00,VWS V14.01,2013-04-18 00:31:00,
2013-04-17 19:36:00,42.0,40.7,29.92,NE,35,11.0,22.0,95,0.00,,SKC,0.60,0.00,VWS V14.01,2013-04-18 00:36:00,
2013-04-17 19:41:00,42.3,41.0,29.93,ENE,58,11.0,15.0,95,0.00,,SKC,0.60,0.00,VWS V14.01,2013-04-18 00:41:00,
2013-04-17 19:46:00,42.5,41.2,29.91,ENE,61,11.0,15.0,95,0.00,,SKC,0.60,0.00,VWS V14.01,2013-04-18 00:46:00,
2013-04-17 19:51:00,42.8,41.5,29.90,ENE,64,8.0,12.0,95,0.00,,SKC,0.60,0.00,VWS V14.01,2013-04-18 00:51:00,
2013-04-17 19:56:00,42.9,41.3,29.88,East,86,14.0,21.0,94,0.00,,SKC,0.60,0.00,VWS V14.01,2013-04-18 00:56:00,
2013-04-17 20:01:00,43.0,41.4,29.88,ENE,67,17.0,19.0,94,0.00,,SKC,0.60,0.00,VWS V14.01,2013-04-18 01:01:00,
2013-04-17 20:06:00,43.0,41.4,29.89,East,82,13.0,19.0,94,0.00,,SKC,0.60,0.00,VWS V14.01,2013-04-18 01:06:00,
2013-04-17 20:11:00,43.0,41.4,29.89,East,92,14.0,18.0,94,0.00,,SKC,0.60,0.00,VWS V14.01,2013-04-18 01:11:00,
2013-04-17 20:17:00,43.0,41.4,29.90,SE,124,12.0,18.0,94,0.00,,SKC,0.60,0.00,VWS V14.01,2013-04-18 01:17:00,
2013-04-17 20:22:00,42.9,41.3,29.89,ESE,105,9.0,22.0,94,0.00,,SKC,0.60,0.00,VWS V14.01,2013-04-18 01:22:00,
2013-04-17 20:27:00,42.7,41.1,29.88,East,97,16.0,22.0,94,0.00,,SKC,0.60,0.00,VWS V14.01,2013-04-18 01:27:00,
2013-04-17 20:32:00,42.6,41.0,29.87,ESE,108,14.0,19.0,94,0.00,,SKC,0.60,0.00,VWS V14.01,2013-04-18 01:32:00,
2013-04-17 20:37:00,42.5,41.2,29.86,ESE,103,20.0,25.0,95,0.00,,SKC,0.60,0.00,VWS V14.01,2013-04-18 01:37:00,
2013-04-17 20:42:00,42.5,41.2,29.86,ESE,118,13.0,23.0,95,0.00,,SKC,0.60,0.00,VWS V14.01,2013-04-18 01:42:00,
2013-04-17 20:47:00,42.4,41.1,29.86,East,90,8.0,24.0,95,0.00,,SKC,0.60,0.00,VWS V14.01,2013-04-18 01:47:00,
2013-04-17 20:52:00,42.3,41.0,29.86,East,90,22.0,22.0,95,0.00,,SKC,0.60,0.00,VWS V14.01,2013-04-18 01:52:00,
2013-04-17 20:57:00,42.2,40.9,29.84,ESE,123,12.0,22.0,95,0.00,,SKC,0.60,0.00,VWS V14.01,2013-04-18 01:57:00,
2013-04-17 21:02:00,42.2,40.9,29.82,ESE,105,15.0,22.0,95,0.00,,SKC,0.60,0.00,VWS V14.01,2013-04-18 02:02:00,
2013-04-17 21:07:00,42.2,40.9,29.81,East,101,12.0,22.0,95,0.00,,SKC,0.60,0.00,VWS V14.01,2013-04-18 02:07:00,
2013-04-17 21:12:00,42.2,40.9,29.80,East,96,12.0,21.0,95,0.00,,SKC,0.60,0.00,VWS V14.01,2013-04-18 02:12:00,
2013-04-17 21:17:00,42.2,40.9,29.83,ESE,117,12.0,23.0,95,0.00,,SKC,0.60,0.00,VWS V14.01,2013-04-18 02:17:00,
2013-04-17 21:22:00,42.2,40.9,29.87,NNW,341,12.0,12.0,95,0.00,,SKC,0.60,0.00,VWS V14.01,2013-04-18 02:22:00,
2013-04-17 21:27:00,42.3,41.2,29.87,North,5,5.0,15.0,96,0.00,,SKC,0.60,0.00,VWS V14.01,2013-04-18 02:27:00,
2013-04-17 21:32:00,42.4,41.3,29.86,NNE,20,10.0,11.0,96,0.00,,SKC,0.60,0.00,VWS V14.01,2013-04-18 02:32:00,
2013-04-17 21:37:00,42.5,41.4,29.86,NE,51,4.0,11.0,96,0.00,,SKC,0.60,0.00,VWS V14.01,2013-04-18 02:37:00,
2013-04-17 21:42:00,42.6,41.3,29.85,ENE,63,7.0,10.0,95,0.00,,SKC,0.60,0.00,VWS V14.01,2013-04-18 02:42:00,
2013-04-17 21:47:00,42.7,41.4,29.88,ESE,121,6.0,11.0,95,0.00,,SKC,0.60,0.00,VWS V14.01,2013-04-18 02:47:00,
2013-04-17 21:52:00,42.8,41.7,29.87,ESE,113,8.0,9.0,96,0.00,,SKC,0.60,0.00,VWS V14.01,2013-04-18 02:52:00,
2013-04-17 21:57:00,42.7,41.4,29.86,ENE,76,8.0,12.0,95,0.01,,SKC,0.61,0.00,VWS V14.01,2013-04-18 02:57:00,
2013-04-17 22:02:00,42.7,41.4,29.86,East,86,5.0,11.0,95,0.01,,SKC,0.61,0.00,VWS V14.01,2013-04-18 03:02:00,
2013-04-17 22:07:00,42.7,41.4,29.85,East,82,12.0,12.0,95,0.02,,SKC,0.62,0.00,VWS V14.01,2013-04-18 03:07:00,
2013-04-17 22:12:00,42.6,41.5,29.84,East,98,8.0,11.0,96,0.04,,SKC,0.64,0.00,VWS V14.01,2013-04-18 03:12:00,
2013-04-17 22:17:00,42.5,41.4,29.83,East,81,8.0,12.0,96,0.05,,SKC,0.65,0.00,VWS V14.01,2013-04-18 03:17:00,
2013-04-17 22:22:00,42.5,41.4,29.82,East,92,12.0,14.0,96,0.05,,SKC,0.65,0.00,VWS V14.01,2013-04-18 03:22:00,
2013-04-17 22:27:00,42.5,41.4,29.82,ESE,102,8.0,14.0,96,0.06,,SKC,0.66,0.00,VWS V14.01,2013-04-18 03:27:00,
2013-04-17 22:32:00,42.5,41.4,29.81,NE,54,8.0,10.0,96,0.07,,SKC,0.67,0.00,VWS V14.01,2013-04-18 03:32:00,
2013-04-17 22:37:00,42.5,41.4,29.81,ENE,58,7.0,13.0,96,0.07,,SKC,0.67,0.00,VWS V14.01,2013-04-18 03:37:00,
2013-04-17 22:42:00,42.5,41.4,29.80,ENE,74,5.0,11.0,96,0.08,,SKC,0.68,0.00,VWS V14.01,2013-04-18 03:42:00,
2013-04-17 22:47:00,42.5,41.4,29.82,East,96,4.0,11.0,96,0.08,,SKC,0.68,0.00,VWS V14.01,2013-04-18 03:47:00,
2013-04-17 22:52:00,42.5,41.4,29.83,East,89,6.0,6.0,96,0.08,,SKC,0.68,0.00,VWS V14.01,2013-04-18 03:52:00,
2013-04-17 22:57:00,42.6,41.5,29.82,East,84,6.0,6.0,96,0.08,,SKC,0.68,0.00,VWS V14.01,2013-04-18 03:57:00,
2013-04-17 23:01:00,42.6,41.5,29.82,East,94,11.0,11.0,96,0.07,,SKC,0.68,0.00,VWS V14.01,2013-04-18 04:01:00,
2013-04-17 23:02:00,42.6,41.5,29.82,East,92,5.0,11.0,96,0.07,,SKC,0.68,0.00,VWS V14.01,2013-04-18 04:02:00,
2013-04-17 23:07:00,42.6,41.5,29.82,East,82,5.0,11.0,96,0.07,,SKC,0.68,0.00,VWS V14.01,2013-04-18 04:07:00,
2013-04-17 23:12:00,42.6,41.5,29.81,NE,44,7.0,10.0,96,0.06,,SKC,0.69,0.00,VWS V14.01,2013-04-18 04:12:00,
2013-04-17 23:17:00,42.5,41.4,29.80,NNE,28,7.0,11.0,96,0.07,,SKC,0.70,0.00,VWS V14.01,2013-04-18 04:17:00,
2013-04-17 23:22:00,42.5,41.4,29.80,ENE,61,7.0,12.0,96,0.05,,SKC,0.70,0.00,VWS V14.01,2013-04-18 04:22:00,
2013-04-17 23:27:00,42.5,41.4,29.80,NE,44,7.0,12.0,96,0.06,,SKC,0.71,0.00,VWS V14.01,2013-04-18 04:27:00,
2013-04-17 23:32:00,42.4,41.3,29.80,NE,51,8.0,8.0,96,0.06,,SKC,0.72,0.00,VWS V14.01,2013-04-18 04:32:00,
2013-04-17 23:37:00,42.4,41.3,29.81,NE,42,14.0,14.0,96,0.07,,SKC,0.73,0.00,VWS V14.01,2013-04-18 04:37:00,
2013-04-17 23:42:00,42.4,41.3,29.81,NNE,33,13.0,18.0,96,0.07,,SKC,0.74,0.00,VWS V14.01,2013-04-18 04:42:00,
2013-04-17 23:47:00,42.3,41.2,29.81,NE,36,9.0,18.0,96,0.09,,SKC,0.76,0.00,VWS V14.01,2013-04-18 04:47:00,
2013-04-17 23:52:00,42.3,41.2,29.81,NNE,12,12.0,18.0,96,0.08,,SKC,0.76,0.00,VWS V14.01,2013-04-18 04:52:00,
2013-04-17 23:57:00,42.2,41.1,29.80,NNE,27,11.0,18.0,96,0.09,,SKC,0.77,0.00,VWS V14.01,2013-04-18 04:57:00,